Zurück zum Katalog

CZ-6A R/B

AktivSSO
NORAD 60214·ROCKET BODY·🇨🇳 China

Gestartet Jul 4, 2024 von Taiyuan Satellite Launch Center

Loading…

Nächste Überflüge (nächste 24 Stunden)

TLE

AktuellSource: Space-Track

Epoche: Sep 14, 2026, 13:26 UTC

1 60214U 24126D   26257.56032952  .00002936  00000-0  15402-3 0  9997
2 60214  97.7704 290.4403 0067017 171.1536 189.0894 15.14663487120968

Verfolge CZ-6A R/B in Echtzeit mit AllMySat

Download on the App Store